Regional Weather Roundup
Issued by NWS Jackson, KY

Home | Current Version | Previous Version | Text Only | Print | Product List | Glossary On
Versions: 1 2 3 4 5 6 7 8 9 10 11 12 13 14 15 16 17 18 19 20 21 22 23 24 25 26 27 28 29 30 31 32 33 34 35 36 37 38 39 40 41 42 43 44 45 46 47 48 49 50
000
ASUS43 KJKL 181510
RWRJKL

EAST KENTUCKY HOURLY WEATHER ROUNDUP
NATIONAL WEATHER SERVICE JACKSON KY
1100 AM EDT WED OCT 18 2017

NOTE: "FAIR" INDICATES FEW OR NO CLOUDS BELOW 12,000 FEET WITH
NO SIGNIFICANT WEATHER AND/OR OBSTRUCTIONS TO VISIBILITY.

* THESE REPORTS ARE NOT UNDER NWS QUALITY CONTROL AND MAY NOT
  REPORT WEATHER SUCH AS PRECIPITATION AND FOG.

KYZ079-080-083-085-087-088-110-112-115-119-120-181600
...EASTERN KENTUCKY...

CITY           SKY/WX    TMP DP  RH WIND       PRES   REMARKS
JACKSON        SUNNY     55  45  68 CALM      30.36R
LONDON         SUNNY     55  45  68 CALM      30.37R
SOMERSET*      SUNNY     52  45  76 CALM      30.38S
MONTICELLO*    SUNNY     60  47  61 NW8       30.38R
WILLIAMSBURG*  SUNNY     52  46  82 CALM      30.37S
MIDDLESBORO*   PTSUNNY   44  44 100 CALM      30.40S
HARLAN APT*    SUNNY     46  45  93 CALM      30.38F
PIKE CO APT*     N/A     52  43  71 CALM      30.36S
BIG SANDY APT* SUNNY     55  43  64 SW5       30.37R
MOREHEAD APT*  SUNNY     57  43  58 S3        30.37R
$$

KYZ035-036-041-042-044-050-067-078-099-181600
...CENTRAL KENTUCKY...

CITY           SKY/WX    TMP DP  RH WIND       PRES   REMARKS
MT STERLING*   SUNNY     59  45  58 SW5       30.37R
FLEMING/MASON* SUNNY     60  43  54 S8        30.36S
DANVILLE*      SUNNY     59  45  58 SW6       30.36S
LEXINGTON      SUNNY     60  47  61 VRB7      30.35R
FRANKFORT      SUNNY     60  45  57 SW7       30.33S
LOUISVILLE     MOSUNNY   56  47  71 CALM      30.33S
LEBANON*       HAZE      59  45  58 S9        30.35R VSB 1
GLASGOW*       SUNNY     60  48  64 SW6       30.35R
BOWLING GREEN  SUNNY     60  50  69 VRB6      30.34S
$$

KYZ091>093-OHZ055-061-077-WVZ005-015-034-035-042-181600
...SOUTHERN OHIO/WEST VIRGINIA...

CITY           SKY/WX    TMP DP  RH WIND       PRES   REMARKS
COVINGTON      SUNNY     60  47  61 S7        30.33S
COLUMBUS       SUNNY     57  44  62 CALM      30.34S
DAYTON         MOSUNNY   58  44  60 S9        30.33S
WILMINGTON     SUNNY     60  44  55 S8        30.33S
HUNTINGTON     SUNNY     53  45  74 VRB3      30.36S
CHARLESTON     MOSUNNY   52  43  71 CALM      30.36S
PINEVILLE*     SUNNY     54  47  78 MISG      30.41F
BECKLEY        SUNNY     57  38  48 SE6       30.37S
BLUEFIELD      SUNNY     55  36  48 VRB5      30.38S
LOGAN CO APT*    N/A     55  45  67 CALM      30.36R
$$

VAZ002-007-008-TNZ017-027-036-066-071-181600
...SOUTHWEST VIRGINIA/EAST TENNESSEE...

CITY           SKY/WX    TMP DP  RH WIND       PRES   REMARKS
WISE*          SUNNY     57  41  54 CALM      30.38S
JONESVILLE*      N/A     55  43  62 CALM      30.40S
ABINGDON*      SUNNY     57  42  57 CALM      30.39S
BRISTOL        MOSUNNY   55  46  71 CALM      30.39R
MORRISTOWN*    SUNNY     57  46  67 CALM      30.37S
SEVIERVILLE*   SUNNY     54  45  71 CALM      30.37S
KNOXVILLE      CLOUDY    55  49  80 NE5       30.37R
LAFOLLETTE*    PTSUNNY   48  48 100 CALM      30.42S
CROSSVILLE     SUNNY     56  47  71 E3        30.36R
NASHVILLE      MOSUNNY   60  46  59 S3        30.35R
$$

...KEY TO REMARKS...
VSB - VISIBILITY IN MILES
WCI - WIND CHILL INDEX
HX  - HEAT INDEX

$$



USA.gov is the U.S. government's official web portal to all federal, state and local government web resources and services.